Regional Weather Roundup
Issued by NWS

Home | Current Version | Previous Version | Text Only | Print | Product List | Glossary On
Versions: 1 2 3 4 5 6 7 8 9 10 11 12 13 14 15 16 17 18 19 20 21 22 23 24 25 26 27 28 29 30 31 32 33 34 35 36 37 38 39 40 41 42 43 44 45 46 47 48 49 50
000
ASUS44 KEWX 192010
RWRTX
SOUTH TEXAS REGIONAL WEATHER ROUNDUP
NATIONAL WEATHER SERVICE AUSTIN/SAN ANTONIO TX
300 PM CDT FRI SEP 19 2014

NOTE: "FAIR" INDICATED FEW OR NO CLOUDS BELOW 12,000 FEET WITH NO
SIGNIFICANT WEATHER AND/OR OBSTRUCTIONS TO VISIBILITY.

* - THESE STATIONS ARE NOT NWS OR FAA STATIONS...AND ARE NOT SUBJECT
    TO NWS AND FAA QUALITY CONTROL.

TXZ171-172-183>190-192100-
TEXAS HILL COUNTRY AND EDWARDS PLATEAU

CITY           SKY/WX    TMP DP  RH WIND       PRES   REMARKS
JUNCTION       CLOUDY    77  76  96 E12       29.93S
*LLANO         CLOUDY    72  72 100 CALM      29.96F
BURNET         CLOUDY    78  71  79 E7        29.95F
*HORSESHOE BAY DRIZZLE   74  74 100 CALM      29.93F
*KERRVILLE     MOSUNNY   82  70  67 E8        29.93S
*FREDERICKSBRG CLOUDY    74  71  89 E5        29.94F
*ROCKSPRINGS   PTSUNNY   86  66  51 E7        29.93F
*BOERNE STAGE  CLOUDY    81  70  69 E7        29.92F
*CASTROVILLE   CLOUDY    91  65  42 SE6       29.86F HX  93
HONDO          MOSUNNY   92  69  47 E12       29.86F HX  97
*UVALDE        MOSUNNY   88  73  61 E10       29.84F HX  95
DEL RIO        MOSUNNY   90  71  53 E7        29.81F HX  96
LAUGHLIN AFB   PTSUNNY   89  72  57 SE6       29.83F HX  95
CARRIZO SPRGS  MOSUNNY   91  72  52 E9G16     29.79F HX  98
$$

TXZ173-191>194-202-209-217>225-228-192100-
CENTRAL AND SOUTH CENTRAL TEXAS

CITY           SKY/WX    TMP DP  RH WIND       PRES   REMARKS
GEORGETOWN     PTSUNNY   86  72  62 NE7       29.91F HX  92
AUSTIN/BERGSTM PTSUNNY   84  75  74 VRB5      29.88F HX  92
AUSTIN/MABRY   PTSUNNY   83  73  72 CALM      29.90F
*AUSTIN/EXEC   PTSUNNY   84  73  70 NE7       29.90F HX  91
*LAGO VISTA    CLOUDY    81  73  75 NE6       29.93F
SAN MARCOS     SUNNY     82  72  69 N10       29.90F
NEW BRAUNFELS  CLOUDY    83  73  72 NE10      29.88S
RANDOLPH AFB   PTSUNNY   85  72  65 NE9       29.88F HX  91
PT SAN ANTONIO CLOUDY    89  73  57 NE12      29.85F HX  96
SAN ANTONIO    CLOUDY    86  74  67 N12       29.88F HX  94
STINSON FIELD  PTSUNNY   90  72  55 NE10      29.84F HX  97
*PLEASANTON    PTSUNNY   94  68  43 NE10G17   29.83F HX  98
*LA GRANGE     SUNNY     88  75  66 E5        29.86F HX  97
*GIDDINGS      PTSUNNY   83  73  71 NE6       29.92F
*GONZALES      DRIZZLE   80  78  93 SW3       29.87F
$$

TXZ163>164-176>182-195>201-210>213-226-227-235-192100-
SOUTHEAST TEXAS

CITY           SKY/WX    TMP DP  RH WIND       PRES   REMARKS
COLLEGE STN    CLOUDY    83  73  72 E7        29.90F
*BRYAN         CLOUDY   N/A N/A N/A E3        29.89F
*CALDWELL      MOSUNNY   84  73  70 NE3       29.92F HX  91
*CROCKETT      MOSUNNY   88  75  66 E5        29.94F HX  97
*BRENHAM       MOSUNNY   85  75  72 E6        29.90F HX  92
HUNTSVILLE     PTSUNNY   85  73  67 E6        29.91F HX  91
CONROE         CLOUDY    83  73  72 VRB6      29.90F
HOUSTON BUSH   PTSUNNY   83  74  74 E9        29.89F
HOUSTON HOBBY  CLOUDY    80  75  84 SE3       29.89F
*HOUSTON SW AP CLOUDY    74  68  83 E3        29.90F
PEARLAND       CLOUDY    80  74  81 E7        29.91F
HOUSTON HOOKS  CLOUDY    83  74  74 E5        29.89F
ELLINGTON FLD  PTSUNNY   81  75  83 E3        29.91F
SUGAR LAND     CLOUDY    82  74  76 S5        29.89F
*HOUSTON EXEC  CLOUDY    82  82 100 S3        29.90F HX  97
*CLEVELAND MUN HVY RAIN  76  75  96 S5        29.92S VSB 3/4
*WHARTON       PTSUNNY   82  75  78 E7        29.89F
$$

TXZ214>216-236>238-192100-
THE UPPER TEXAS COAST

CITY           SKY/WX    TMP DP  RH WIND       PRES   REMARKS
*ORANGE        LGT RAIN  77  77 100 CALM      29.92F
PORT ARTHUR    PTSUNNY   85  75  72 E6        29.90F HX  93
GALVESTON      CLOUDY    81  75  82 VRB6      29.90F
ANGLETON       LGT RAIN  80  75  84 E8        29.89F
*BAY CITY      PTSUNNY   85  78  79 E5        29.88F HX  95
PALACIOS       PTSUNNY   82  73  74 SE9       29.87F
$$

TXZ229>234-239>247-192100-
TEXAS COASTAL BEND AND RIO GRANDE PLAINS

CITY           SKY/WX    TMP DP  RH WIND       PRES   REMARKS
VICTORIA       PTSUNNY   85  76  74 SE9       29.87F HX  94
*BEEVILLE      PTSUNNY   94  72  48 E20G26    29.82F HX 102
ROCKPORT       MOSUNNY   82  74  76 E15       29.85F
*PORT ARANSAS  CLOUDY    82  77  84 NE15G21   29.86R
*PORT LAVACA   PTSUNNY   80  75  86 E8        29.86F
*INGLESIDE     MOSUNNY   87  74  65 E15       29.84R HX  94
CORPUS CHRISTI TSTM      82  77  84 S12       29.83F HX  90
CORPUS NAS     PTSUNNY   86  80  82 E14       29.83S THUNDER HX 101
*ROBSTOWN      PTSUNNY   88  73  61 E17G23    29.82R THUNDER HX  95
ALICE          MOSUNNY   95  75  52 VRB6      29.79F HX 107
KINGSVILLE NAS PTSUNNY   94  77  57 CALM      29.79F HX 108
COTULLA        PTSUNNY   96  69  41 E10       29.80F HX 102
*FAITH RANCH   MOSUNNY   90  73  58 E10       29.82F HX  98
LAREDO         PTSUNNY   93  72  50 E7        29.81F HX 100
$$

TXZ248>255-192100-
DEEP SOUTH TEXAS

CITY           SKY/WX    TMP DP  RH WIND       PRES   REMARKS
BROWNSVILLE    MOSUNNY   91  77  63 SE9       29.79F HX 104
PORT ISABEL    PTSUNNY   88  78  72 E16       29.79F HAZE    HX 101
*SOUTH PADRE   MOSUNNY   86  79  79 SE12      29.81F THUNDER HX  99
HARLINGEN      MOSUNNY   93  76  57 SE7       29.78F HX 105
*HEBBRONVILLE    N/A     90  71  53 SE7       29.82F HX  96
MCALLEN        MOSUNNY   92  76  59 E8        29.78F HX 104
*WESLACO       MOSUNNY   91  73  54 SE5       29.78F HX  99
FALFURRIAS     MOSUNNY  N/A N/A N/A E6        29.78F
EDINBURG       MOSUNNY   94  73  49 SE6       29.78F HX 103
*ZAPATA        CLOUDY    92  69  45 SE9       29.77F HX  97
$$

TXZ213>215-236>238-242>244-246-247-251-254-255-192100-
CMAN STATIONS

STATION/POSITION TIME  TEMP    WIND        PRES    WAVE
                       AIR SEA DIR/SP/G            HT/PER
                 (UTC) (F)     (DEG/KT/KT) (MB)    (FT/S)
SABINE PASS      2000   81 82  150/  6/  7 1012.9
SEA RIM ST PARK  2000   81     140/  8/  9 1013.0
NORTH JETTY/GLS  2000   80 83                N/A
EAGLE POINT      2000   78 80   80/  4/  6 1012.5
MORGANS POINT    2000   79     100/  7/  8 1012.2
MISSION/ARANSAS  1900           50/ 14     1012.0
PORT O`CONNOR    2000          110/  9/ 11   N/A
PORT ARANSAS     2000   80 85   60/ 19/ 23 1011.4
MALAQUITE BEACH  2000   85 86   70/ 12/ 13 1009.8
BAFFIN BAY       2000   85 87  110/ 10/ 11 1009.4
PORT ISABEL      2000   83 84  120/ 14/ 18 1009.7
$$

GMZ080-GMZ150>470-192100-
OFFSHORE BUOY REPORTS

STATION/POSITION TIME  TEMP    WIND        PRES    WAVE
                       AIR SEA DIR/SP/G            HT/PER
                 (UTC) (F)     (DEG/KT/KT) (MB)    (FT/S)
20 E GALVESTON   2000   79 83   60/  8/ 10 1012.0    2/ 5
90 E PT ARANSAS  2000   78 85   50/ 12/ 14 1011.9    3/ 4
35 NE PT MANSFLD 2000   83 85   80/ 10/ 12 1009.7    3/ 6
200 E PT ISABEL  2000   85 86  230/ 12/ 14 1010.4    3/ 5
$$


USA.gov is the U.S. government's official web portal to all federal, state and local government web resources and services.